Location: Berg
(47.2344°N, 9.5296°E)
Time: 17:08:32
(UTC+00:00)

AAUSAT CUBESAT 2 - Pass Details

Date: 28 November 2021
Orbit: 572 x 586 km, 97.5° (Epoch: 16 January)

Event Time Altitude Azimuth Distance (km) Brightness Sun altitude
Rises 04:57:56 0° 9° (N) 2,793 ? -17.5°
Reaches altitude 10° 05:00:07 10° 5° (N) 1,891 ? -17.1°
Maximum altitude 05:04:08 57° 287° (WNW) 682 ? -16.4°
Drops below altitude 10° 05:08:08 10° 209° (SSW) 1,883 ? -15.8°
Sets 05:10:18 0° 205° (SSW) 2,780 ? -15.4°
